Regional Weather Roundup
Issued by NWS Upton, NY

Home | Current Version | Previous Version | Text Only | Print | Product List | Glossary On
Versions: 1 2 3 4 5 6 7 8 9 10 11 12 13 14 15 16 17 18 19 20 21 22 23 24 25 26 27 28 29
000
ASUS41 KOKX 301705
RWROKX

REGIONAL WEATHER ROUNDUP
NATIONAL WEATHER SERVICE NEW YORK NY
100 PM EDT SAT JUL 30 2016

NOTE: "FAIR" INDICATES FEW OR NO CLOUDS BELOW 12,000 FEET WITH NO
SIGNIFICANT WEATHER AND/OR OBSTRUCTIONS TO VISIBILITY.

NYZ071-072-176-178-NJZ106-104-301800-
NEW YORK CITY METRO AREA

CITY           SKY/WX    TMP DP  RH WIND       PRES   REMARKS
Central Park   PTSUNNY   80  68  66 E6        30.04S
LaGuardia APRT PTSUNNY   80  69  69 NE9       30.01S
Kennedy INTL   PTSUNNY   82  70  66 SE13      30.03R
Newark/Liberty LGT RAIN  83  70  64 E7        30.00S
Bronx Bot Gard   N/A     82  68  61 E10       30.03F
Wall St Helipt PTSUNNY   84  72  65 S3        30.01S
Teterboro      SUNNY     84  69  60 E6        29.99F
$$

NYZ177-179-078>081-301800-
LONG ISLAND NEW YORK

CITY           SKY/WX    TMP DP  RH WIND       PRES   REMARKS
Farmingdale    PTSUNNY   82  71  69 S13       30.03R
MacArthur/ISP  LGT RAIN  80  71  74 SE13      30.01S
Shirley        CLOUDY    80  71  74 SE9       30.03S
Riverhead      NOT AVBL
Westhampton    PTSUNNY   79  70  74 SE9       30.05S
Southhampton     N/A     77  72  83 SE10      30.01R
Bridgehampton    N/A     81  73  78 SW2       30.03S
East Hampton   FAIR      79  71  74 S7        30.04S
Montauk          N/A     79  70  74 VRB3      30.06R
$$

NYZ052-065-067-301800-
HUDSON VALLEY

CITY           SKY/WX    TMP DP  RH WIND       PRES   REMARKS
White Plains   PTSUNNY   81  67  62 SE8       30.03S
Newburgh       PTSUNNY   81  68  65 E6        30.06S
Montgomery     MOSUNNY   82  67  60 VRB5      30.03F
Poughkeepsie   PTSUNNY   84  65  52 CALM      30.02S
Albany         CLOUDY    76  61  59 N5        30.06S
$$

NJZ001-105-106-008-010-013-015-019>022-104-301800-
NEW JERSEY

CITY           SKY/WX    TMP DP  RH WIND       PRES   REMARKS
Newark/Liberty LGT RAIN  83  70  64 E7        30.00S
Teterboro      SUNNY     84  69  60 E6        29.99F
Caldwell       PTSUNNY   85  70  60 E5        30.01F
Morristown     PTSUNNY   84  72  65 E3        30.01S
Somerville     MOSUNNY   86  71  60 VRB3      29.97F HX  91
Linden         FAIR      87  65  48 CALM      30.01F
Sussex         MOSUNNY   82  70  66 N6        30.02F
Abdover          N/A     82  70  66 VRB3      30.02F
Trenton        LGT RAIN  83  72  69 SW5       29.99S
Millville      CLOUDY    81  66  60 VRB3      30.01S
Atlantic City  PTSUNNY   83  69  62 S13       30.02S
Wrightstown    MOSUNNY   84  73  70 SE6       29.97S HX  91
Toms River     RAIN      79  75  87 SE7       30.02R
Belmar         PTSUNNY   82  74  76 SE10      30.02S
$$

PAZ047>061-062-071-301800-
EASTERN PENNSYLVANIA

CITY           SKY/WX    TMP DP  RH WIND       PRES   REMARKS
Philadelphia   CLOUDY    87  71  58 S13       29.99S HX  93
Allentown      PTSUNNY   84  71  65 E6        29.99F
Scranton       CLOUDY    71  68  90 E8        30.01F
$$

CTZ002-004>006-009-010-012-RIZ004-006-007-MAZ004-011-015-301800-
SOUTHERN NEW ENGLAND
 IN CT

CITY           SKY/WX    TMP DP  RH WIND       PRES   REMARKS
Bradley INTL   PTSUNNY   87  60  40 VRB3      30.03S
Hartford       MOSUNNY   88  66  48 SE3       30.02S HX  90
Danbury        PTSUNNY   82  69  64 E6        30.05S
Wtrbury/Oxford PTSUNNY   82  64  54 S8        30.08S
Bridgeport     MOSUNNY   81  69  67 E8        30.02S
Meriden        CLOUDY    86  65  49 SE7       30.02S
New Haven      PTSUNNY   83  68  60 SE10      30.03S
Chester        FAIR      84  66  54 SE8G15    30.05R
Groton         PTSUNNY   78  68  71 S8        30.03S
Wilimantic     MOSUNNY   86  64  47 CALM      30.03F

 IN RI

CITY           SKY/WX    TMP DP  RH WIND       PRES   REMARKS
Providence     PTSUNNY   84  65  52 S10       30.04S
Block Island   MOSUNNY   77  69  76 SE7       30.06R
Westerly       MOSUNNY   80  65  59 SE12      30.05R
 IN MA

CITY           SKY/WX    TMP DP  RH WIND       PRES   REMARKS
Boston         MOSUNNY   77  57  50 E15       30.04S
Worchester     CLOUDY    78  57  48 S7        30.08R
Westfield      MOSUNNY   85  58  39 VRB3      30.03S
Provincetown   SUNNY     75  65  70 N8        30.05S
Nantucket      MOSUNNY   77  70  79 MISG      30.05R
$$

ANZ330-335-338-340-345-350-353-355-301800-
COASTAL MARINE OBSERVATIONS


STATION/POSITION TIME  SKY/WX   TEMP    WIND        PRES    VSBY  WAVE
                                AIR SEA DIR/SP/G                  HT/PER
                 (UTC)          (F)     (DEG/KT/KT) (MB)    (MI)  (FT/S)
NY HARB ENTRANCE 1550            76 76  170/  4/  4 1016.4          2/ 5
20S FIRE ISLAND  1550            76 76  180/  4/  6 1016.4          2/ 6
GREAT SOUTH BAY  1615            76 82  150/ 10/ 12   N/A
23 SSW MONTAUK P 1550            75 75  110/  6/  6 1017.7          2/ 6
15 E BARNEGAT LI 1630               79                N/A           2/ 5
HUDSON CANYON    1550            78 79              1017.3          2/ 6
KINGS POINT      1600            77 72              1016.2
EXECUTION ROCKS  1600            74      40/ 10/ 12   N/A
CENTRAL LI SOUND 1600            75 75   80/  8/ 10   N/A           0
EASTERN LI SOUND 1600            72 69  170/  6/  8   N/A
ROBBINS REEF     1606            77     170/ 10/ 11 1015.5
$$


>>>>>>>>>>>>>>>>>>>>>>>>>>>> KEY <<<<<<<<<<<<<<<<<<<<<<<<<<<
>                                                          <
>     SKY/WX - Sky Condition/Present Weather               <
>     TMP    - Temperature in Fahrenheit                   <
>     DP     - Dew Point in Fahrenheit                     <
>     RH     - Relative Humidity in Percent                <
>     WIND   - Direction (from) and Speed in MPH           <
>     PRES   - Mean Sea Level Pressure (inches of Hg)      <
>     WCI    - Wind Chill Index                            <
>     VSB    - VISIBILITY IN MILES                         <
>     HX     - HEAT INDEX                                  <
>     TC     - TEMPERATURE IN CELSIUS                      <
>     VRB    - VARIABLE WIND DIRECTION                     <
>                                                          <
>>>>>>>>>>>>>>>>>>>>>>>>>>>> KEY <<<<<<<<<<<<<<<<<<<<<<<<<<<




USA.gov is the U.S. government's official web portal to all federal, state and local government web resources and services.